Cut Bank Municipal Airport Cut Bank US
ICAO: KCTB
IATA: CTB
Category: Medium
Scheduled Services: No

Elevation: 3854 ft
TransAlt. 18000 ft.

Airport Communications:
SALT LAKE CITY CNTR:133.4
ASOS:119.025
GREAT FALLS RDO:122.2
CTAF/UNICOM:122.8

KCTB Zoom In..

Runways:

(A) RW 05 length 5302 ft width 75 ft
---- / hdg 47

(B) RW 13 length 5300 ft width 75 ft
---- / hdg 135

(C) RW 23 length 5302 ft width 75 ft
---- / hdg 227

(D) RW 31 length 5300 ft width 75 ft
---- / hdg 315

Location; KCTB
Day. 23 / Time. 09.56 Zulu
* Altimeter: 30.30
* Temperature: 08° c. 46.4°f.
* Wind from: 040° Speed 05 kn.
Dewpoint: 04° c.
Visibility: 10 Statute Miles.
Clouds: Clear (automated report).

KCTB 230956Z AUTO 04005KT 10SM CLR 08/04 A3030 RMK AO2 SLP246 T00780039 TSNO


Wind From 040°
Speed 05 kn.

 
 
jpsmedia.com for Web Design worldairports.se 2018   terms of use